loading
|

THOR ABLESTAR DEB, 123

Orbit data source: Space-Track

THOR ABLESTAR DEB, 123 is space debris in LEO originally from a launch on Thu, 29 Jun 1961 UTC launched from the Air Force Eastern Test Range (AFETR). Debris objects in space refer to the collection of defunct objects orbiting the Earth. Examples of debris include non-operational satellites, rocket bodies, and fragments generated from explosions, collisions, or faulty payload assembly.

Loading next visibility...
Loading greatness...
THOR ABLESTAR DEB details
Identifier
123, 1961-015H
Orbit
LEO
Last TLE update10 hours ago
Origin
Flag of USUSAF SSD (US)
ManufacturerUnknown
Mission statusUnknown
MissionUnknown
Bus & MotorUnknown
MassUnknown
Launch date (UTC)
1961-06-29 (63 years ago)
Launch vehicleUnknown
Launch site
Air Force Eastern Test Range (AFETR)
Object type
Payload
Rocket body
Debris
Radar Cross SectionMedium (>0.1 m² and <1 m²)

Expand to show TLE details & history

TLE from 10 hours ago
0 THOR ABLESTAR DEB
1 00123U 61015H   24251.60503122  .00003081  00000-0  94726-3 0  9995
2 00123  66.6894 353.4521 0107511  20.7474 339.7942 14.39604312286230
Epoch: 2024-09-07T14:31Z
Definitive object data (Epoch: 2024-09-07T14:31:14.697Z)
Latitude-0.00006°
Longitude148.48002°
Altitude689.995 km
Speed7.549 km/s
True Right ascension23h 33m 48s
True Declination0° 00' 00"
Sunlit
Object was in full shadow at TLE epoch
Predictive object data (real-time)
Latitude66.63637°
Longitude-129.8706°
Altitude739.426 km
Speed7.508 km/s
Apparent Right ascension05h 03m 23s
Apparent Declination17° 31' 31"
Sunlit
Object is in daylight
Predictive observer data (real-time)
Local Sidereal Time17:05:07
Azimuth0.489° NNE
Elevation-32.557°
Doppler factor1
Orbital elements
Apogee834.898 km
Perigee681.452 km
Semi-major axis7,136.312 km
Eccentricity0.0107511
Inclination66.6894°
RAAN353.4521°
Arg. of periapsis20.7474°
True anomaly339.36325°
Mean anomaly339.7942°
Eccentric anomaly339.57927°
Mean motion3.60025 °/min
BSTAR0.00094726
Period99.99 mins
No data available

THOR ABLESTAR DEB Visibility forecast

Observer location: 39.9160978°, -105.1181434

THOR ABLESTAR DEB is not visible in the next 10 days
Span
Click to sort rows by Start time (UTC) header in descending order
Start Az.
Max El. time (UTC)
Max El. Az.
Max El.
End time (UTC)
End Az.